KUIPER-00078 (64825 NORAD) Tracking and Keplerian Element Data

This shows tracking and keplerian element data for the satellite.

Feedback or suggestion? Click here.




ElementValue
Catalog64825
NameKUIPER-00078
Epoch Orbit2360
Epoch Day354.18152145
Epoch Year2025
RAAN287.1689
Inclination51.9018
Eccentricity0.0008808
Argument of Perigee27.1031
Mean Anonmoly333.0389
Mean Motion14.79970255
Decay Rate3.936E-05
L11 64825U 25151K 25354.18152145 .00003936 00000+0 54447-3 0 9992
L22 64825 51.9018 287.1689 0008808 27.1031 333.0389 14.79970255 23609



Live tracking and technical data element details for KUIPER-00078 (NORAD 64825). KUIPER-00078 can be tracked NOW for your location showing map with azimuth and elevation plus other details from your city location.







IsCatalogInMostPopularTable: catalog: 64825, numindb: 4
Update: records affected: 1



GetName: 64825 KUIPER-00078

Hit Count: updated at: Mon, 20 Apr 2026 11:09:18 GMT